Location: Nordegg
(52.4712°N, 116.0743°W)
Time: 07:48:41
(UTC+00:00)

Envisat - Pass Details

Date: 03 December 2021
Orbit: 764 x 766 km, 98.2° (Epoch: 25 January)

Event Time Altitude Azimuth Distance (km) Brightness Sun altitude
Rises 00:45:41 0° 198° (SSW) 3,222 6.9 -10.4°
Reaches altitude 10° 00:48:19 10° 210° (SSW) 2,301 6.3 -10.8°
Maximum altitude 00:52:35 27° 268° (W) 1,454 5.3 -11.4°
Drops below altitude 10° 00:56:53 10° 325° (NW) 2,316 5.7 -12.0°
Sets 00:59:33 0° 338° (NNW) 3,248 6.3 -12.3°
